Weather in Pyt-Yah

Russia / Khanty-Mansi Autonomous Okrug — Yugra     60°45′30″N   72°50′11″E
temp.,
°C
wind,
m/s
gust,
m/s
humid.,
%
clouds,
%
prec.,
mm/h
press.,
hPa
HPBL,
m
28 june, tue
tue2823:00+10wnw3989100 0.6 995285
02:00+9nw41074100 0.0 996439
05:00+10wnw4107292 0.0 997610
08:00+12wnw595992 0.0 9971226
11:00+13wnw6953100 0.0 9971739
14:00+13wnw71055100 0.0 9981713
17:00+11w5972100 0.1 9981149
20:00+8wsw51092100 0.9 997917
29 june, wed
wed2923:00+7wsw51096100 2.2 996555
02:00+7sw51097100 1.1 994539
05:00+7ssw4996100 2.4 994557
08:00+7s4895100 0.5 993490
11:00+10wsw248236 0.9 993584
14:00+16nnw455297 0.1 9931627
17:00+15nne7964100 0.3 9931126
20:00+11n71285100 0.6 992809
30 june, thu
thu3023:00+8n71497100 3.6 992599
02:00+8nnw71497100 2.2 990701
05:00+9nnw71498100 4.6 987763
08:00+10nnw81697100 9.8 9851065
11:00+12nne51098100 16.6 985580
14:00+14ene4674100 0.3 9891063
17:00+15ne3560100 0.3 9911162
20:00+12nnw2488100 0.1 992150
1 july, fri
fri123:00+12w1193100 0.2 99277
02:00+11nw3898100 2.4 991430
05:00+10nnw81593100 4.4 9921015
08:00+9nnw71489100 0.8 993961
11:00+10nnw6109499 1.1 994736
14:00+15nw356793 0.3 9961223
17:00+12nnw5108997 1.3 998818
20:00+11nw51196100 0.8 998571
2 july, sat
sat223:00+10nw599683 1.0 999536
02:00+8nw499790 0.0 1000336
05:00+9wnw4895100 0.1 1000365
08:00+11nw488993 0.1 999479
11:00+13nnw588498 1.8 999841
14:00+14nnw5882100 1.4 999838
17:00+14nnw488368 3.1 998535
20:00+13nw398698 1.0 998314